{"data":{"norad_id":68866,"epoch":"2026-05-24T23:58:11.563680Z","epoch_age_seconds":85838,"freshness":"FRESH","line1":"1 68866U 26095C   26144.99874495  .00036635  00000+0  95753-3 0  9992","line2":"2 68866  51.8836 354.3818 0003361 194.3992 165.6900 15.38411050  4165","mean_motion":15.3841105,"eccentricity":0.0003361,"inclination_deg":51.8836,"raan_deg":354.3818,"arg_perigee_deg":194.3992,"mean_anomaly_deg":165.69,"bstar":0.00095753,"rev_number":416,"period_min":93.603071818809,"perigee_km":448.51225611832,"apogee_km":453.10267258726,"semimajor_km":6828.9444643528,"source":"CELESTRAK","updated_at":"2026-05-25T13:38:08.645695Z"}}